Location: Gisborne
(38.6530°S, 178.0040°E)
Time: 22:44:22
(UTC+13:00)

Cosmos 1709 Rocket - Pass Details

Date: 24 January 2019
Orbit: 949 x 1001 km, 82.9° (Epoch: 15 October)

Event Time Altitude Azimuth Distance (km) Brightness Sun altitude
Exits shadow 23:21:09 58° 2° (N) 1,143 4.0 -25.8°
Maximum altitude 23:22:32 86° 84° (E) 996 3.9 -25.9°
Drops below altitude 10° 23:28:51 10° 172° (S) 2,744 7.0 -26.5°
Sets 23:31:21 0° 172° (S) 3,690 7.8 -26.8°
